Date,TemperatureHighF,TemperatureAvgF,TemperatureLowF,DewpointHighF,DewpointAvgF,DewpointLowF,HumidityHigh,HumidityAvg,HumidityLow,PressureMaxIn,PressureMinIn,WindSpeedMaxMPH,WindSpeedAvgMPH,GustSpeedMaxMPH,PrecipitationSumIn
2013-1-1,16,4,-8,1,-5,-13,85,66,44,0.00,40.00,8,3,12,0.00
2013-1-2,23,18,11,12,8,1,85,68,44,0.00,40.00,10,4,15,0.00
2013-1-3,24,19,11,18,13,6,83,79,74,0.00,40.00,11,6,17,0.00
2013-1-4,33,18,9,16,11,4,93,73,49,0.00,40.00,10,5,17,0.00
2013-1-5,32,19,2,29,14,-1,93,82,67,0.00,40.00,9,3,13,0.00
2013-1-6,33,24,8,26,18,6,96,79,63,0.00,40.00,10,6,20,0.00
2013-1-7,40,22,3,23,14,0,99,75,47,0.00,40.00,12,4,24,0.00
2013-1-8,40,25,9,31,21,7,99,84,61,0.00,40.00,10,3,19,0.00
2013-1-9,42,34,20,31,24,19,99,70,42,0.00,40.00,13,8,27,0.00
2013-1-10,37,28,14,35,24,13,100,88,59,0.00,40.00,6,3,12,0.29
2013-1-11,43,38,34,43,38,34,100,100,100,0.00,40.00,7,3,12,0.45
2013-1-12,45,32,19,44,26,11,100,77,60,0.00,40.00,13,8,27,0.01
2013-1-13,19,14,10,11,5,0,76,67,56,0.00,40.00,11,8,19,0.00
2013-1-14,23,11,4,8,3,-1,90,71,48,0.00,40.00,10,4,19,0.00
2013-1-15,31,14,-1,14,5,-5,90,69,42,0.00,40.00,10,4,18,0.00
2013-1-16,31,25,17,31,18,8,100,75,52,0.00,40.00,12,7,20,0.00
2013-1-17,23,14,3,8,1,-6,88,57,34,0.00,40.00,11,6,24,0.00
2013-1-18,44,25,2,30,18,-1,99,78,55,0.00,40.00,11,5,24,0.04
2013-1-19,47,31,11,34,24,-3,100,77,43,0.00,40.00,24,8,44,0.01
2013-1-20,12,7,3,-3,-7,-9,60,52,41,0.00,40.00,19,10,34,0.01
2013-1-21,6,-2,-8,-5,-15,-21,67,53,41,0.00,40.00,14,10,24,0.00
2013-1-22,4,-4,-11,-9,-16,-20,75,58,41,0.00,40.00,10,5,15,0.00
2013-1-23,16,6,-5,11,-2,-11,86,70,49,0.00,40.00,15,6,24,0.00
2013-1-24,12,5,-4,6,-7,-12,82,57,40,0.00,40.00,8,4,19,0.00
2013-1-25,22,16,10,15,11,6,92,82,67,0.00,40.00,9,5,16,0.01
2013-1-26,25,15,-1,11,5,-4,85,67,46,0.00,40.00,7,4,13,0.01
2013-1-27,31,27,21,31,20,10,100,78,60,0.00,40.00,6,5,13,0.27
2013-1-28,35,33,31,35,32,31,100,99,93,0.00,40.00,7,3,11,0.25
2013-1-29,43,36,32,43,36,32,100,100,100,0.00,40.00,6,4,14,0.35
2013-1-30,34,26,14,34,26,10,100,97,83,0.00,40.00,13,8,26,0.20
2013-1-31,14,7,-1,10,-1,-8,83,71,60,0.00,40.00,12,10,22,0.01